[[{"header":{"parameterUnit":"m.s-1","parameterCategory":1,"la1":30.2991,"la2":30.254,"lo1":-89.0895,"lo2":-89.0444,"dy":0.0017,"dx":0.0017,"nx":28,"ny":28,"refTime":"2024-04-12T09:00:00:Z","depth":0,"parameterNumber":2,"parameterNumberName":"U-component_of_WINDS"},"data":[0,0,0,0,0,0,0,0,0,0,0,0,0,0,0,0,0,0,0,0,0,0,0,0,0,0,0,0,0,0,0,0,0,0,0,0,0,0,0,0,0,0,0,0,0,0,0,0,0,0,0,0,0,0,0,0,0,0,-2.9045,-2.9045,0,-2.9051,-2.9051,-2.9051,-2.8965,-2.8962,-2.896,-2.8958,-2.8966,-2.8969,-2.8971,0,0,0,0,0,0,0,0,0,0,0,0,0,-2.8961,-2.8963,-2.9045,-2.9045,-2.9045,-2.9051,-2.9051,-2.9051,-2.8965,-2.8962,-2.8959,-2.8957,-2.8965,-2.8968,-2.8971,0,0,0,0,0,0,0,0,0,0,0,0,0,-2.8985,-2.8963,-2.9045,-2.9003,-2.8999,-2.9051,-2.9051,-2.9051,-2.8966,-2.8962,-2.8958,-2.8955,-2.8964,-2.8968,-2.8972,-2.9065,0,0,-2.8983,-2.8984,0,0,0,0,0,0,0,0,-2.8984,-2.8988,-2.9009,-2.9006,-2.9002,-2.9003,-2.9025,-2.9056,-2.8966,-2.8978,-2.8958,-2.8953,-2.8982,-2.8984,-2.8993,-2.9066,-2.9066,-2.8983,-2.8985,-2.8987,-2.8988,0,0,0,0,0,0,0,-2.8982,-2.8988,-2.9047,-2.9009,-2.9005,-2.8984,-2.8984,-2.903,-2.9,-2.8977,-2.8971,-2.8973,-2.8979,-2.8989,-2.8992,-2.9066,-2.8983,-2.8986,-2.8988,-2.899,-2.9218,-2.9221,0,0,0,0,0,0,-2.8986,-2.8987,-2.9047,-2.9048,-2.8984,-2.8989,-2.8988,-2.9006,-2.8999,-2.8995,-2.8976,-2.8968,-2.8985,-2.8988,-2.8992,-2.9102,-2.8987,-2.899,-2.8992,-2.9214,-2.9219,-2.9223,0,0,0,0,0,0,-2.8985,-2.8992,-2.9047,-2.9016,-2.9021,-2.8994,-2.9015,-2.9008,-2.9019,-2.8998,-2.8992,-2.8992,-2.8982,-2.8987,-2.9048,-2.9101,-2.8992,-2.8995,-2.9209,-2.9215,-2.9221,-2.9323,0,0,0,0,0,0,-2.8983,-2.8992,-2.9027,-2.9017,-2.9023,-2.9102,-2.9018,-2.9011,-2.9025,-2.9016,-2.9012,-2.9007,-2.898,-2.9043,-2.9052,-2.9104,-2.8998,-2.9204,-2.9212,-2.9219,-2.9315,-2.9332,-2.9346,0,0,0,0,0,-2.898,-2.9056,-2.9029,-2.9037,-2.9066,-2.9105,-2.9109,-2.9075,-2.903,-2.9065,-2.9052,-2.9008,-2.9094,-2.905,-2.9059,-2.9114,-2.9201,-2.921,-2.9218,-2.9308,-2.9328,-2.9346,0,0,0,0,0,0,-2.9073,-2.9053,-2.9024,-2.9098,-2.9104,-2.9091,-2.9134,-2.9097,-2.9116,-2.9107,-2.9065,-2.9065,-2.9133,-2.9129,-2.908,-2.9205,-2.914,-2.9151,-2.9205,-2.9224,-2.9239,-2.9239,-2.9001,0,0,0,0,0,-2.9102,-2.9135,-2.9117,-2.9184,-2.9189,-2.9161,-2.9177,-2.915,-2.9155,-2.9157,-2.9148,-2.9155,-2.9183,-2.9203,-2.9228,-2.9314,-2.9312,-2.9356,-2.9371,-2.9384,-2.9395,-2.9441,-2.946,-2.9251,-2.9251,-2.9251,0,0,-2.9163,-2.9156,-2.918,-2.9203,-2.9204,-2.9241,-2.9164,-2.9205,-2.9232,-2.9163,-2.922,-2.9215,-2.9219,-2.9293,-2.9325,-2.9292,-2.9452,-2.9395,-2.9406,-2.9409,-2.9452,-2.9472,-2.9489,-2.9257,-2.9256,-2.9255,0,0,-2.9292,-2.929,-2.9346,-2.935,-2.9352,-2.9334,-2.9348,-2.934,-2.9333,-2.9389,-2.9339,-2.9371,-2.9421,-2.9427,-2.9436,-2.9569,-2.953,-2.9579,-2.9661,-2.9706,-2.9723,-2.9737,-2.9786,-2.9804,-2.9589,-2.9589,-2.9589,0,-2.9367,-2.9419,-2.938,-2.9426,-2.9438,-2.9377,-2.9435,-2.944,-2.9452,-2.9462,-2.9424,-2.9487,-2.9486,-2.9561,-2.9593,-2.9602,-2.9618,-2.9579,-2.9723,-2.9737,-2.975,-2.9796,-2.9815,-2.9595,-2.9594,-2.9594,-2.9593,0,-2.9512,-2.9549,-2.9595,-2.9607,-2.9624,-2.9676,-2.9646,-2.9668,-2.9641,-2.9626,-2.9685,-2.9682,-2.9706,-2.9722,-2.9695,-2.9794,-2.9773,-2.973,-2.9664,-2.9777,-2.9819,-2.9837,-2.9604,-2.9601,-2.96,-2.9598,0,0,-2.97,-2.9691,-2.9708,-2.9714,-2.9713,-2.9741,-2.979,-2.9813,-2.9834,-2.9844,-2.9885,-2.993,-2.989,-2.9901,-2.9875,-2.9915,-3.0022,-2.9867,-2.9866,-2.9897,-3.0132,-3.0165,-3.0186,-2.9996,-2.9999,-3.0001,-3.0132,0,-2.9826,-2.9909,-2.9876,-2.9962,-2.9997,-2.994,-2.9984,-2.9989,-2.9977,-3.0005,-2.9992,-3.0025,-2.9969,-2.9976,-3.0013,-3.0001,-3.0069,-2.9991,-3.0035,-3.0037,-3.0036,-3.0208,-3.0243,-3.0366,-3.0148,-3.0151,-3.0153,0,-2.9985,-3.0001,-3.0091,-3.0085,-3.0099,-3.0138,-3.0157,-3.0184,-3.0189,-3.0178,-3.0191,-3.0156,-3.0205,-3.0139,-3.0207,-3.0155,-3.0171,-3.0168,-3.0172,-3.0176,-3.0103,-3.0217,-3.0405,-3.0424,-3.0179,-3.0177,-3.0175,0,-3.0114,-3.0159,-3.0219,-3.0225,-3.022,-3.0249,-3.0248,-3.0249,-3.0266,-3.0283,-3.0293,-3.0316,-3.0329,-3.0348,-3.0321,-3.0275,-3.0394,-3.0325,-3.0387,-3.0388,-3.0415,-3.0414,-3.0609,-3.0424,-3.0424,-3.0423,-3.0423,0,-3.0259,-3.0317,-3.0277,-3.0314,-3.0377,-3.0339,-3.0403,-3.0396,-3.0398,-3.0433,-3.0386,-3.042,-3.0382,-3.0413,-3.0392,-3.0452,-3.0458,-3.0452,-3.0446,-3.0456,-3.0458,-3.0467,-3.0458,-3.0428,-3.0427,-3.0426,-3.0425,0,-3.0415,-3.039,-3.0452,-3.0442,-3.0441,-3.0488,-3.048,-3.0514,-3.0499,-3.0545,-3.0553,-3.053,-3.0565,-3.0539,-3.0573,-3.0559,-3.0639,-3.0621,-3.0638,-3.0633,-3.0697,-3.0692,-3.0906,-3.0932,-3.0729,-3.0731,-3.0733,0,-3.0509,-3.0552,-3.0547,-3.0567,-3.057,-3.0602,-3.0619,-3.0584,-3.0604,-3.0613,-3.0647,-3.0677,-3.07,-3.0758,-3.0745,-3.0771,-3.0753,-3.0826,-3.0757,-3.0767,-3.0756,-3.0754,-3.0759,-3.0841,-3.0843,-3.0845,-3.0846,0,-3.068,-3.0666,-3.0692,-3.0714,-3.0735,-3.0751,-3.0763,-3.0782,-3.0747,-3.0771,-3.0806,-3.0823,-3.0858,-3.089,-3.0911,-3.0911,-3.0874,-3.0868,-3.0884,-3.0896,-3.0905,-3.0903,-3.0677,-3.0864,-3.0862,-3.0861,-3.086,-3.0859,-3.0809,-3.0845,-3.0847,-3.0878,-3.0883,-3.0896,-3.0928,-3.0917,-3.0945,-3.0971,-3.0949,-3.0991,-3.0996,-3.1021,-3.1026,-3.1059,-3.1029,-3.1052,-3.1058,-3.1064,-3.1074,-3.0899,-3.1063,-3.1062,-3.1061,-3.1061,-3.1061,0,-3.0978,-3.0977,-3.1006,-3.1024,-3.1049,-3.1011,-3.1022,-3.1046,-3.1083,-3.1091,-3.1114,-3.1154,-3.1185,-3.1174,-3.1202,-3.123,-3.1214,-3.1239,-3.1237,-3.1238,-3.1098,-3.1082,-3.1252,-3.1252,-3.1251,-3.1251,-3.1251,-3.1251,-3.107,-3.1129,-3.1116,-3.1178,-3.1176,-3.1217,-3.1227,-3.1239,-3.1245,-3.1292,-3.1317,-3.131,-3.1311,-3.1338,-3.1365,-3.1361,-3.1374,-3.1406,-3.1396,-3.1266,-3.1247,-3.1229,-3.1214,-3.1408,-3.1409,-3.1533,-3.1534,-3.1535]},{"header":{"parameterUnit":"m.s-1","parameterCategory":1,"la1":30.2991,"la2":30.254,"lo1":-89.0895,"lo2":-89.0444,"dy":0.0017,"dx":0.0017,"nx":28,"ny":28,"refTime":"2024-04-12T09:00:00:Z","depth":0,"parameterNumber":3,"parameterNumberName":"V-component_of_WINDS"},"data":[0,0,0,0,0,0,0,0,0,0,0,0,0,0,0,0,0,0,0,0,0,0,0,0,0,0,0,0,0,0,0,0,0,0,0,0,0,0,0,0,0,0,0,0,0,0,0,0,0,0,0,0,0,0,0,0,0,0,0.051,0.0509,0,0.0493,0.0493,0.0493,0.0501,0.0502,0.0502,0.0503,0.0485,0.0484,0.0483,0,0,0,0,0,0,0,0,0,0,0,0,0,0.0548,0.0548,0.051,0.0509,0.0509,0.0493,0.0493,0.0493,0.0501,0.0502,0.0502,0.0503,0.0485,0.0484,0.0483,0,0,0,0,0,0,0,0,0,0,0,0,0,0.0532,0.0547,0.051,0.0512,0.0512,0.0493,0.0493,0.0493,0.0501,0.0502,0.0502,0.0503,0.0485,0.0484,0.0483,0.0461,0,0,0.0479,0.0478,0,0,0,0,0,0,0,0,0.0533,0.053,0.0512,0.0511,0.0511,0.05,0.05,0.0482,0.0501,0.0505,0.0503,0.0503,0.0489,0.0488,0.0483,0.046,0.046,0.0478,0.0478,0.0477,0.0477,0,0,0,0,0,0,0,0.0534,0.0531,0.0503,0.0511,0.0511,0.0513,0.0512,0.0497,0.0494,0.0505,0.0505,0.0503,0.0489,0.0484,0.0483,0.0459,0.0479,0.0477,0.0477,0.0476,0.0419,0.0418,0,0,0,0,0,0,0.0535,0.0532,0.0504,0.0503,0.0524,0.0512,0.051,0.0503,0.0494,0.0493,0.0503,0.0504,0.0486,0.0484,0.0482,0.0456,0.0477,0.0476,0.0475,0.042,0.0419,0.0418,0,0,0,0,0,0,0.0536,0.0532,0.0504,0.0517,0.0514,0.0511,0.0503,0.0502,0.0497,0.0492,0.0492,0.0498,0.0487,0.0484,0.0467,0.0456,0.0475,0.0474,0.0421,0.042,0.0419,0.0405,0,0,0,0,0,0,0.0537,0.0532,0.0524,0.0517,0.0513,0.0489,0.0502,0.0502,0.0495,0.0496,0.0488,0.0487,0.0487,0.0469,0.0465,0.0454,0.0473,0.0422,0.042,0.0419,0.0406,0.0404,0.0401,0,0,0,0,0,0.0538,0.0521,0.0524,0.052,0.0503,0.0488,0.0486,0.0487,0.0494,0.0486,0.0483,0.0487,0.0458,0.0467,0.0463,0.0452,0.0422,0.0421,0.0419,0.0407,0.0404,0.0401,0,0,0,0,0,0,0.0526,0.052,0.0523,0.0503,0.0496,0.049,0.0479,0.0483,0.0474,0.0475,0.0476,0.0474,0.0456,0.0452,0.0462,0.0431,0.0441,0.0439,0.0434,0.043,0.0428,0.0429,0.0472,0,0,0,0,0,0.0521,0.051,0.0505,0.0488,0.0484,0.0482,0.0476,0.0477,0.047,0.0467,0.0463,0.0456,0.0445,0.0438,0.0427,0.0406,0.0405,0.0397,0.0394,0.0392,0.039,0.0379,0.0375,0.0413,0.0413,0.0413,0,0,0.051,0.0505,0.0498,0.0485,0.048,0.0468,0.048,0.0467,0.0458,0.0465,0.0449,0.0445,0.0437,0.0418,0.041,0.0415,0.0379,0.039,0.0389,0.0387,0.0377,0.0373,0.037,0.0412,0.0412,0.0412,0,0,0.0484,0.048,0.0465,0.046,0.0453,0.0452,0.0449,0.0442,0.044,0.0424,0.0429,0.0419,0.04,0.0395,0.0389,0.0363,0.0367,0.036,0.0346,0.0335,0.0332,0.033,0.032,0.0317,0.0358,0.0358,0.0358,0,0.0472,0.0455,0.0457,0.0444,0.0438,0.0445,0.043,0.0425,0.0414,0.041,0.0416,0.0394,0.0389,0.0368,0.0362,0.0358,0.0354,0.036,0.0333,0.033,0.0328,0.0318,0.0315,0.0357,0.0357,0.0357,0.0357,0,0.044,0.0428,0.0417,0.0407,0.04,0.0386,0.0387,0.0379,0.0382,0.038,0.0364,0.0359,0.0348,0.0343,0.0345,0.0323,0.0327,0.0333,0.0343,0.0323,0.0314,0.0311,0.0356,0.0356,0.0356,0.0357,0,0,0.0404,0.0397,0.0393,0.0389,0.0382,0.0373,0.036,0.035,0.0343,0.0336,0.0325,0.031,0.0316,0.031,0.0311,0.0302,0.0282,0.0309,0.0309,0.0304,0.0257,0.0252,0.0248,0.0285,0.0284,0.0284,0.0258,0,0.0378,0.0355,0.0357,0.0335,0.0324,0.0331,0.032,0.0315,0.0313,0.0304,0.0303,0.0292,0.0301,0.0297,0.0288,0.0286,0.0272,0.0288,0.0274,0.0273,0.0274,0.0244,0.0238,0.0214,0.0255,0.0254,0.0254,0,0.0343,0.0336,0.0313,0.0309,0.0304,0.0294,0.0285,0.0276,0.0271,0.0271,0.0265,0.0268,0.0255,0.0267,0.0248,0.0259,0.0254,0.0252,0.0251,0.0249,0.0261,0.024,0.0206,0.0202,0.0249,0.0249,0.0249,0,0.0319,0.0304,0.0288,0.0284,0.0279,0.0272,0.0269,0.0264,0.0258,0.0251,0.0247,0.0238,0.0233,0.0226,0.0227,0.0235,0.0208,0.022,0.0207,0.0207,0.02,0.02,0.0164,0.0198,0.0198,0.0198,0.0198,0,0.0289,0.0274,0.0277,0.0267,0.0252,0.0255,0.0239,0.0238,0.0233,0.0223,0.0229,0.022,0.0222,0.0213,0.0214,0.0199,0.0196,0.0196,0.0196,0.0194,0.0194,0.019,0.0191,0.0197,0.0198,0.0198,0.0198,0,0.0258,0.026,0.0243,0.024,0.0239,0.0227,0.0225,0.0215,0.0216,0.0203,0.02,0.02,0.0189,0.019,0.0178,0.0179,0.016,0.0162,0.0162,0.0162,0.0149,0.015,0.0108,0.0102,0.0141,0.0141,0.014,0,0.0238,0.0228,0.0224,0.0218,0.0215,0.0205,0.02,0.0203,0.0197,0.019,0.0182,0.0172,0.0164,0.0147,0.0146,0.0137,0.0139,0.0125,0.0137,0.0136,0.0138,0.0138,0.0137,0.0122,0.0121,0.0121,0.0121,0,0.0203,0.0204,0.0196,0.0188,0.0182,0.0175,0.017,0.0165,0.0168,0.016,0.015,0.0144,0.0132,0.0123,0.0114,0.0112,0.0116,0.0117,0.0113,0.0111,0.0111,0.0111,0.0154,0.0117,0.0118,0.0118,0.0118,0.0118,0.0177,0.0167,0.0164,0.0154,0.0151,0.0146,0.0137,0.0137,0.0128,0.0119,0.0122,0.011,0.0106,0.0095,0.0092,0.0083,0.0088,0.0083,0.0081,0.008,0.0078,0.0114,0.0081,0.0082,0.0082,0.0082,0.0082,0,0.0141,0.0139,0.0131,0.0123,0.0116,0.0122,0.0117,0.011,0.01,0.0096,0.0089,0.0077,0.0068,0.0066,0.0058,0.0051,0.0053,0.0048,0.0048,0.0047,0.0074,0.0078,0.0047,0.0047,0.0047,0.0047,0.0047,0.0047,0.0121,0.0106,0.0107,0.0091,0.0089,0.0078,0.0075,0.007,0.0067,0.0054,0.0047,0.0046,0.0043,0.0034,0.0026,0.0026,0.0022,0.0017,0.0017,0.0042,0.0046,0.0049,0.0052,0.0016,0.0016,-0.0009,-0.0009,-0.0009]}]]